• In Uzbekistan
  • List of Countries
  • For 7 days
  • Water Temperature
  • Satellite Maps
  • Weather Map
  • Weather Widgets
  • user-avatar
    Login

    Hourly Weather Escaldes-Engordany

    Today, 27 April, Thursday

    Time Temperature Precipitation Wind Pressure Humidity
    00:00 -2°C° 0 mm 2 mps 634 mmHg 89%
    01:00 -2°C° 0.8 mm 2 mps 634 mmHg 90%
    02:00 -3°C° 0.8 mm 2 mps 633 mmHg 91%
    03:00 -3°C° 0.8 mm 2 mps 633 mmHg 92%
    04:00 -3°C° 0.8 mm 2 mps 633 mmHg 91%
    05:00 -3°C° 0.8 mm 2 mps 633 mmHg 91%
    06:00 -4°C° 0 mm 2 mps 634 mmHg 88%
    07:00 -3°C° 0.4 mm 2 mps 634 mmHg 84%
    08:00 -2°C° 0.4 mm 2 mps 634 mmHg 80%
    09:00 -2°C° 0.4 mm 2 mps 634 mmHg 77%
    10:00 -1°C° 0.1 mm 2 mps 635 mmHg 74%
    11:00 0°C° 0.1 mm 3 mps 635 mmHg 71%
    12:00 +1°C° 0.1 mm 3 mps 635 mmHg 68%
    13:00 +1°C° 0.2 mm 3 mps 635 mmHg 68%
    14:00 +1°C° 0.2 mm 3 mps 635 mmHg 68%
    15:00 +1°C° 0.2 mm 3 mps 635 mmHg 68%
    16:00 +1°C° 0.2 mm 3 mps 635 mmHg 72%
    17:00 0°C° 0.2 mm 3 mps 635 mmHg 75%
    18:00 -1°C° 0.2 mm 3 mps 635 mmHg 78%
    19:00 -2°C° 0 mm 3 mps 635 mmHg 80%
    20:00 -5°C° 0 mm 3 mps 635 mmHg 81%
    21:00 -6°C° 0 mm 3 mps 635 mmHg 82%
    22:00 -6°C° 0 mm 3 mps 636 mmHg 82%
    23:00 -6°C° 0 mm 3 mps 636 mmHg 82%

    Tomorrow, 28 April, Friday

    Time Temperature Precipitation Wind Pressure Humidity
    00:00 -7°C° 0 mm 3 mps 636 mmHg 82%
    01:00 -7°C° 0 mm 3 mps 636 mmHg 82%
    02:00 -7°C° 0 mm 3 mps 636 mmHg 81%
    03:00 -7°C° 0 mm 3 mps 635 mmHg 81%
    04:00 -7°C° 0 mm 3 mps 636 mmHg 78%
    05:00 -6°C° 0 mm 2 mps 636 mmHg 76%
    06:00 -5°C° 0 mm 2 mps 636 mmHg 73%
    07:00 -3°C° 0 mm 2 mps 637 mmHg 68%
    08:00 +1°C° 0 mm 2 mps 638 mmHg 62%
    09:00 +3°C° 0 mm 2 mps 639 mmHg 57%
    10:00 +4°C° 0 mm 2 mps 639 mmHg 56%
    11:00 +5°C° 0 mm 2 mps 639 mmHg 56%
    12:00 +6°C° 0 mm 2 mps 639 mmHg 55%
    13:00 +7°C° 0 mm 2 mps 639 mmHg 55%
    14:00 +7°C° 0 mm 2 mps 638 mmHg 56%
    15:00 +7°C° 0 mm 2 mps 638 mmHg 57%
    16:00 +7°C° 0 mm 1 mps 638 mmHg 62%
    17:00 +6°C° 0 mm 1 mps 637 mmHg 68%
    18:00 +5°C° 0 mm 1 mps 637 mmHg 73%
    19:00 +2°C° 0 mm 1 mps 636 mmHg 79%
    20:00 0°C° 0 mm 1 mps 636 mmHg 85%
    21:00 -3°C° 0 mm 1 mps 635 mmHg 91%
    22:00 -3°C° 0 mm 1 mps 635 mmHg 91%
    23:00 -3°C° 0 mm 1 mps 635 mmHg 91%

    Day after tomorrow, 29 April, Saturday

    Time Temperature Precipitation Wind Pressure Humidity
    00:00 -3°C° 0 mm 1 mps 634 mmHg 91%
    01:00 -3°C° 0 mm 1 mps 634 mmHg 90%
    02:00 -3°C° 0 mm 1 mps 634 mmHg 89%
    03:00 -3°C° 0 mm 1 mps 634 mmHg 88%
    04:00 -2°C° 0 mm 1 mps 634 mmHg 83%
    05:00 0°C° 0 mm 1 mps 635 mmHg 79%
    06:00 +1°C° 0 mm 1 mps 635 mmHg 75%
    07:00 +2°C° 0 mm 2 mps 636 mmHg 70%
    08:00 +5°C° 0 mm 2 mps 636 mmHg 64%
    09:00 +7°C° 0 mm 3 mps 637 mmHg 58%
    10:00 +8°C° 0 mm 3 mps 637 mmHg 58%
    11:00 +9°C° 0 mm 3 mps 637 mmHg 57%
    12:00 +10°C° 0 mm 3 mps 637 mmHg 57%
    13:00 +9°C° 0.1 mm 3 mps 636 mmHg 61%
    14:00 +9°C° 0.1 mm 3 mps 636 mmHg 66%
    15:00 +8°C° 0.1 mm 3 mps 635 mmHg 70%
    16:00 +7°C° 0.1 mm 3 mps 635 mmHg 75%
    17:00 +5°C° 0.1 mm 3 mps 634 mmHg 80%
    18:00 +6°C° 0.1 mm 2 mps 634 mmHg 85%
    19:00 +5°C° 0 mm 2 mps 634 mmHg 87%
    20:00 +4°C° 0 mm 2 mps 634 mmHg 90%
    21:00 +3°C° 0 mm 2 mps 634 mmHg 92%
    22:00 +3°C° 0.1 mm 2 mps 634 mmHg 92%
    23:00 +3°C° 0.1 mm 2 mps 633 mmHg 92%

    30 April, Sunday

    Time Temperature Precipitation Wind Pressure Humidity
    00:00 +3°C° 0.1 mm 2 mps 633 mmHg 92%
    01:00 +3°C° 0.4 mm 2 mps 633 mmHg 92%
    02:00 +3°C° 0.4 mm 2 mps 633 mmHg 92%
    03:00 +3°C° 0.4 mm 2 mps 632 mmHg 92%
    04:00 +3°C° 0.1 mm 2 mps 632 mmHg 92%
    05:00 +4°C° 0.1 mm 2 mps 632 mmHg 91%
    06:00 +4°C° 0.1 mm 2 mps 632 mmHg 91%
    07:00 +5°C° 0.1 mm 3 mps 633 mmHg 85%
    08:00 +7°C° 0.1 mm 3 mps 633 mmHg 79%
    09:00 +8°C° 0.1 mm 3 mps 634 mmHg 74%
    10:00 +8°C° 0.1 mm 4 mps 633 mmHg 68%
    11:00 +10°C° 0.1 mm 4 mps 633 mmHg 63%
    12:00 +11°C° 0.1 mm 4 mps 633 mmHg 58%
    13:00 +10°C° 0.1 mm 4 mps 633 mmHg 60%
    14:00 +10°C° 0.1 mm 4 mps 633 mmHg 61%
    15:00 +10°C° 0.1 mm 4 mps 632 mmHg 63%
    16:00 +7°C° 0.9 mm 4 mps 632 mmHg 72%
    17:00 +6°C° 0.9 mm 4 mps 632 mmHg 81%
    18:00 +4°C° 0.9 mm 4 mps 632 mmHg 89%
    19:00 +3°C° 0.4 mm 3 mps 632 mmHg 91%
    20:00 +2°C° 0.4 mm 2 mps 633 mmHg 93%
    21:00 +1°C° 0.4 mm 2 mps 633 mmHg 94%
    22:00 -1°C° 0.1 mm 2 mps 633 mmHg 94%
    23:00 -1°C° 0.1 mm 2 mps 633 mmHg 94%

    1 May, Monday

    Time Temperature Precipitation Wind Pressure Humidity
    00:00 -1°C° 0.1 mm 2 mps 634 mmHg 94%
    01:00 -2°C° 0 mm 2 mps 634 mmHg 94%
    02:00 -2°C° 0 mm 2 mps 634 mmHg 93%
    03:00 -3°C° 0 mm 2 mps 634 mmHg 93%
    04:00 -3°C° 0 mm 2 mps 635 mmHg 90%
    05:00 -2°C° 0 mm 2 mps 635 mmHg 87%
    06:00 -2°C° 0 mm 2 mps 636 mmHg 84%
    07:00 +1°C° 0 mm 2 mps 637 mmHg 76%
    08:00 +2°C° 0 mm 3 mps 638 mmHg 67%
    09:00 +4°C° 0 mm 3 mps 639 mmHg 59%
    10:00 +5°C° 0 mm 3 mps 639 mmHg 55%
    11:00 +7°C° 0 mm 3 mps 639 mmHg 51%
    12:00 +8°C° 0 mm 3 mps 639 mmHg 47%
    13:00 +8°C° 0 mm 3 mps 639 mmHg 48%
    14:00 +8°C° 0 mm 3 mps 640 mmHg 50%
    15:00 +8°C° 0 mm 3 mps 640 mmHg 51%
    16:00 +7°C° 0 mm 3 mps 639 mmHg 57%
    17:00 +7°C° 0 mm 2 mps 639 mmHg 62%
    18:00 +6°C° 0 mm 2 mps 639 mmHg 68%
    19:00 +4°C° 0 mm 2 mps 639 mmHg 73%
    20:00 +3°C° 0 mm 2 mps 639 mmHg 78%
    21:00 +1°C° 0 mm 2 mps 638 mmHg 83%
    22:00 +2°C° 0.1 mm 2 mps 638 mmHg 83%
    23:00 +2°C° 0.1 mm 2 mps 638 mmHg 83%

    2 May, Tuesday

    Time Temperature Precipitation Wind Pressure Humidity
    00:00 +2°C° 0.1 mm 2 mps 638 mmHg 84%
    01:00 +3°C° 0.3 mm 1 mps 638 mmHg 85%
    02:00 +3°C° 0.3 mm 1 mps 637 mmHg 87%
    03:00 +3°C° 0.3 mm 1 mps 637 mmHg 88%
    04:00 +4°C° 0.5 mm 1 mps 637 mmHg 88%
    05:00 +4°C° 0.5 mm 1 mps 637 mmHg 87%
    06:00 +5°C° 0.5 mm 1 mps 638 mmHg 86%
    07:00 +6°C° 0.5 mm 1 mps 638 mmHg 83%
    08:00 +7°C° 0.5 mm 1 mps 638 mmHg 80%
    09:00 +8°C° 0.5 mm 1 mps 639 mmHg 78%
    10:00 +7°C° 0.6 mm 2 mps 639 mmHg 77%
    11:00 +7°C° 0.6 mm 2 mps 639 mmHg 77%
    12:00 +8°C° 0.6 mm 2 mps 639 mmHg 77%
    13:00 +8°C° 0.6 mm 2 mps 639 mmHg 79%
    14:00 +8°C° 0.6 mm 2 mps 638 mmHg 80%
    15:00 +8°C° 0.6 mm 2 mps 638 mmHg 82%
    16:00 +7°C° 0.2 mm 2 mps 638 mmHg 85%
    17:00 +7°C° 0.2 mm 2 mps 638 mmHg 87%
    18:00 +7°C° 0.2 mm 1 mps 638 mmHg 90%
    19:00 +6°C° 0 mm 1 mps 638 mmHg 92%
    20:00 +5°C° 0 mm 1 mps 638 mmHg 94%
    21:00 +4°C° 0 mm 1 mps 637 mmHg 96%
    22:00 +4°C° 0.1 mm 1 mps 637 mmHg 95%
    23:00 +3°C° 0.1 mm 1 mps 637 mmHg 94%
    Show more